0 HST 1 20580U 90037B 26163.25344175 .00006001 00000-0 18892-3 0 9991 2 20580 28.4709 114.2921 0001952 91.9422 268.1398 15.30693075787818 0 ISS (ZARYA) 1 25544U 98067A 26162.96453450 .00008067 00000-0 15344-3 0 9994 2 25544 51.6334 325.9414 0004932 175.6343 184.4689 15.49182446570948 0 CXO 1 25867U 99040B 26164.08641897 .00000611 00000-0 00000+0 0 9999 2 25867 56.1211 116.7320 7849026 310.2825 0.0985 0.37806491 17304